Rbgn^[z[y[W
メイン
   新天体発見情報
     Comet P/2018 L1 (PANSTARRS)
投稿するにはまず登録を

フラット表示 前のトピック | 次のトピック
投稿者 スレッド
佐藤裕久
投稿日時: 2018-6-18 19:04
モデレータ
登録日: 2005-6-12
居住地: 日本
投稿: 2505
オンライン
Comet P/2018 L1 (PANSTARRS)

6月3.3日UT、Haleakala にある1.8-m Pan-STARRS1 Ritchey-Chretien望遠鏡で得たCCD画像から
他の彗星を発見された。
R. Weryk (ハワイ大学天文学研究所)の書込みよると、3つの画像のうちの一つが南東に5" の短い
尾が見える。この彗星の頭部のFWHM(半値全幅)はシーイングが1".1 で約1".5であった。
Werykは、6月6.34日、 R. Wainscoat, C. WipperとA. Petricが、Mauna Keaにある3.6-m Canada-
France-Hawaii望遠鏡で60秒の gri-バンドフォローアップ画像を得るため手配した。
この天体は明らかに彗星に見え、p.a. 100°に約6"伸びた尾がある。この彗星のFWHM(半値全幅)
はシーイングが1".0 で約1".4であった。光度は19.7と測定された。
小惑星センターのPCCP webpageに公表後、CCD位置観測者、G. Hug (Sandlot天文台, Scranton, 
カンザス州, 0.56-m反射望遠鏡)と佐藤英貴氏(東京都文京区, iTelescope天文台, 0.51-m f/6.8 
アストログラフ, Siding Spring, 遠隔操作)によって彗星状と観測された。
Mt Lemmonによる5月18.2日UTの発見前の観測があった。

発見位置は次のとおり、

     2018 UT             R.A. (2000) Decl.       Mag.
     June  3.28457   13 04 11.55   -19 27 54.1   20.0
           3.29557   13 04 11.56   -19 27 49.4   19.9
           3.30658   13 04 11.57   -19 27 44.7   20.0

楕円軌道要素と位置推算表は次のとおり、

Orbital elements:
    P/2018 L1 (PANSTARRS)
Epoch 2018 Nov. 18.0 TT = JDT 2458440.5
T 2018 Nov. 12.56594 TT                                 MPCW
q   1.8854738            (2000.0)            P               Q
n   0.14209546     Peri.   17.86403     +0.27946339     +0.94243042
a   3.6370497      Node   268.67580     -0.90182240     +0.19198790
e   0.4815925      Incl.   10.58494     -0.32957027     +0.27379838
P   6.94
From 36 observations 2018 May 18-June 7, mean residual 0".4.

    P/2018 L1 (PANSTARRS)
Epoch 2018 Mar. 23.0 TT = JDT 2458200.5
T 2018 Nov. 12.60605 TT                                 MPCW
q   1.8850448            (2000.0)            P               Q
n   0.14202788     Peri.   17.88097     +0.27996372     +0.94229133
a   3.6382034      Node   268.68889     -0.90170100     +0.19247046
e   0.4818748      Incl.   10.58207     -0.32947781     +0.27393826
P   6.94
From 36 observations 2018 May 18-June 7, mean residual 0".4.

Ephemeris:
    P/2018 L1 (PANSTARRS)
Date    TT    R. A. (2000) Decl.     Delta      r     Elong.  Phase   m1
2018 05 09    13 11 57.5 -22 55 04   1.4920  2.4372   153.5    10.7  19.7
...
2018 05 24    13 05 08.8 -20 46 51   1.5094  2.3672   138.8    16.4  19.6
...
2018 06 01    13 04 07.6 -19 44 17   1.5357  2.3307   131.1    19.1  19.6
...
2018 06 07    13 04 38.6 -19 02 44   1.5616  2.3038   125.5    21.0  19.6
2018 06 08    13 04 50.3 -18 56 20   1.5664  2.2994   124.6    21.3  19.6
2018 06 09    13 05 03.7 -18 50 06   1.5713  2.2950   123.6    21.6  19.6
...
2018 06 15    13 07 03.0 -18 16 13   1.6029  2.2686   118.3    23.2  19.6
...
2018 06 23    13 11 22.0 -17 41 02   1.6500  2.2343   111.6    25.0  19.6
...
2018 07 08    13 24 09.7 -17 05 56   1.7487  2.1725   100.2    27.4  19.6

(CBET 4521、MPEC 2018-L36)

フラット表示 前のトピック | 次のトピック

題名 投稿者 日時
 » Comet P/2018 L1 (PANSTARRS) 佐藤裕久 2018-6-18 19:04

投稿するにはまず登録を
 
© 1999 Tsutomu Seki.